SCP
0 1 1 2 2 1 0 0 0 0 0 0 1 1 1 1 1 2 2 2 2 3 3 3 3 3 2 2 2 2 2 2 1 1 1 1 1 1 1 1 1 1 1 1 1 1 1 1 1
0 1 1 2 1 0 0 0 0 0 0 0 1 1 1 1 1 2 2 2 2 3 3 3 3 3 2 2 2 2 2 2 2 1 1 1 1 1 1 1 1 1 1 1 1 1 1 1 1
1 1 1 1 1 0 0 0 0 0 0 0 1 1 2 2 2 3 3 2 3 3 3 3 4 3 2 2 2 2 2 2 2 2 1 1 1 1 1 1 1 1 1 1 1 1 2 1 1
1 1 1 1 0 0 0 0 0 0 1 1 1 2 2 2 3 3 2 2 3 4 4 4 4 3 3 2 2 2 2 2 2 2 2 1 1 1 1 1 1 1 1 1 1 1 2 1 1
1 1 1 0 0 0 0 0 0 0 1 2 2 1 2 3 4 3 2 3 4 4 4 4 4 4 3 3 2 2 2 2 2 2 2 2 1 1 1 1 1 1 1 1 1 1 2 2 1
1 1 1 0 0 0 0 0 0 1 2 2 2 1 2 3 4 4 3 3 4 5 5 4 4 4 4 3 3 3 3 2 2 2 2 2 2 1 1 1 1 1 1 1 1 1 2 2 2
0 0 0 0 0 0 0 0 0 1 2 2 2 2 2 3 4 5 4 4 4 5 5 4 4 4 3 3 3 3 2 2 2 2 1 1 1 2 2 1 1 1 1 1 1 1 2 2 2
0 0 0 0 0 0 0 0 0 1 2 3 3 2 2 3 4 5 4 4 5 5 5 5 4 3 3 3 2 2 2 2 1 1 1 1 1 1 1 1 1 1 1 1 1 1 1 2 2
0 0 0 0 0 0 0 0 1 1 2 2 3 3 3 3 3 4 4 5 5 5 5 5 4 3 3 2 2 2 2 2 1 1 1 1 1 1 1 1 1 1 1 1 1 1 1 1 1
0 0 0 0 0 0 0 0 1 2 2 2 3 3 3 3 3 3 4 5 5 5 5 4 4 3 3 2 2 2 2 2 2 1 1 1 1 1 1 1 1 1 1 1 1 1 1 1 1
0 0 0 0 0 0 0 0 1 2 2 2 2 2 3 2 3 3 4 4 4 4 4 4 3 3 2 2 3 3 3 3 2 2 1 1 1 1 1 2 2 1 1 1 1 1 1 1 1
0 0 0 0 0 0 0 1 1 1 2 2 2 2 2 2 2 3 3 3 3 3 3 3 3 2 2 2 2 3 3 3 3 3 2 2 2 2 2 2 2 2 2 2 1 1 1 1 1
0 0 0 0 0 0 0 0 1 1 1 2 2 2 2 2 2 2 2 2 2 2 2 3 2 2 1 2 2 3 3 4 4 3 3 2 2 2 2 2 2 2 2 2 2 1 1 1 1
0 0 0 0 0 0 0 0 0 0 1 1 1 2 2 2 2 1 1 1 2 2 2 2 1 1 1 1 1 2 3 3 4 3 3 2 2 2 2 2 2 2 2 2 2 1 1 1 1
0 0 0 0 0 0 0 0 0 0 0 1 1 1 1 2 1 1 1 1 2 2 2 1 1 0 0 0 1 1 2 3 3 3 3 2 2 2 2 2 2 2 2 2 2 2 1 1 1
0 0 0 0 0 0 0 0 0 0 0 0 1 1 1 1 1 1 0 1 1 1 1 0 0 0 0 0 0 1 1 2 3 3 3 2 2 2 2 2 1 1 2 2 2 2 1 1 1
0 0 0 0 0 0 0 0 0 0 0 0 1 1 1 1 0 0 0 0 1 0 0 0 0 0 0 0 0 0 1 2 3 3 2 1 1 1 1 1 1 1 2 2 2 2 1 1 1
0 0 0 0 0 0 0 0 0 0 0 0 1 1 1 0 0 0 0 0 0 0 0 0 0 0 0 0 0 0 1 1 2 2 2 1 1 1 1 1 1 1 2 2 2 1 1 1 1
0 0 0 0 0 0 0 0 0 0 0 0 1 1 0 0 0 0 0 0 0 0 0 0 0 0 1 1 0 0 0 1 1 2 1 1 0 0 1 1 1 1 2 2 1 1 1 1 1
0 0 0 0 0 0 0 0 0 0 0 0 0 0 0 0 0 0 0 0 0 0 0 0 0 1 1 1 1 0 0 1 1 1 1 1 0 0 1 1 1 1 1 1 1 1 1 1 1
0 0 0 0 0 0 0 0 0 0 0 0 0 0 0 0 0 0 0 0 0 0 0 0 1 1 1 1 0 0 0 0 1 1 1 0 0 0 0 1 1 1 1 1 1 1 1 0 0
0 0 0 0 0 0 0 0 0 0 0 0 0 0 0 0 0 0 0 0 0 0 0 1 1 1 0 0 0 0 0 0 0 1 0 0 0 0 0 0 1 1 1 1 1 1 0 0 0
0 0 0 0 0 0 0 0 0 0 0 0 0 0 0 0 0 0 0 0 0 0 0 0 1 0 0 0 0 0 0 0 0 0 0 0 0 0 0 0 0 0 0 0 1 1 0 0 0
0 0 0 0 0 0 0 0 0 0 0 0 0 0 0 0 0 0 0 0 0 0 0 0 0 0 0 0 0 0 0 0 0 0 0 0 0 0 0 0 0 0 0 0 1 1 0 0 0
0 0 0 0 0 0 0 0 0 0 0 0 0 0 0 0 0 0 0 0 0 0 0 0 0 0 0 0 0 0 0 0 0 0 0 0 0 0 0 0 0 0 0 0 0 0 0 0 0
0 0 0 0 0 0 0 0 0 0 0 0 0 0 0 0 0 0 0 0 0 0 0 0 0 0 0 0 0 0 0 0 0 0 0 0 0 0 0 0 0 0 0 0 0 0 0 0 0
0 0 0 0 0 0 0 0 0 0 0 0 0 0 0 0 0 0 0 0 0 0 0 0 0 0 0 0 0 0 0 0 0 0 0 0 0 0 0 0 0 0 0 0 0 0 0 0 0
0 0 0 0 0 0 0 0 0 0 0 0 0 0 0 0 0 0 0 0 0 0 0 0 0 0 0 0 0 0 0 0 0 0 0 0 0 0 0 0 0 0 0 0 0 0 0 0 0
0 0 0 0 0 0 0 0 0 0 0 0 0 0 0 0 0 0 0 0 0 0 0 0 0 0 0 0 0 0 0 0 0 0 0 0 0 0 0 0 0 0 0 0 0 0 0 0 0
0 0 0 0 0 0 0 0 0 0 0 0 0 0 0 0 0 0 0 0 0 0 0 0 0 0 0 0 0 0 0 0 0 0 0 0 0 0 0 0 0 0 0 0 0 0 0 0 0
Wind_Speed
5 4 2 3 5 7 11 8 5 5 5 2 2 4 5 4 3 2 5 6 8 10 10 11 10 9 9 9 9 8 8 8 8 8 7 7 7 6 6 6 6 6 6 5 5 5 5 5 5
4 2 3 4 7 10 9 7 8 6 2 1 3 4 4 3 2 4 5 6 8 9 10 10 10 9 9 9 8 8 8 8 7 7 7 6 6 6 6 6 6 6 5 5 5 5 5 5 4
1 2 3 4 8 11 8 5 4 2 2 3 2 2 2 1 3 3 4 8 8 9 9 10 10 9 9 8 8 7 7 7 7 7 6 6 5 5 5 5 5 5 5 5 4 4 4 4 3
2 2 3 6 11 9 6 3 3 4 3 3 3 3 2 2 1 2 5 8 9 8 8 10 9 9 9 8 8 7 7 7 7 6 6 6 5 5 5 5 4 4 4 4 3 3 3 3 2
1 3 5 7 10 6 4 4 4 5 4 3 4 3 2 2 2 4 6 7 8 8 7 9 8 8 8 8 7 7 7 7 7 6 6 6 6 6 5 5 4 4 3 3 3 3 2 2 2
2 3 6 9 9 5 4 4 4 5 4 3 4 4 2 2 4 5 5 6 7 7 7 8 8 8 8 8 7 7 6 6 6 6 6 6 6 5 5 4 4 3 3 2 2 2 2 1 1
3 3 6 7 7 6 4 4 5 5 5 4 4 4 3 4 4 4 5 5 6 6 6 7 7 8 8 7 7 7 7 7 6 6 6 6 5 5 5 4 4 3 3 3 2 1 1 1 1
1 2 5 6 7 6 3 3 4 6 5 2 4 5 3 4 4 5 5 5 5 5 5 6 6 6 7 7 8 7 7 7 6 6 6 5 5 5 5 4 4 3 3 3 3 2 2 2 1
2 4 6 5 5 4 2 3 2 2 3 3 4 4 2 4 6 7 6 5 5 5 4 4 5 5 5 6 6 7 7 6 5 5 5 2 2 3 3 4 4 4 3 3 3 3 2 2 1
2 4 4 3 3 3 3 4 3 4 5 5 4 2 2 6 8 8 8 7 5 5 4 4 4 5 4 4 4 4 3 4 3 3 3 1 1 1 1 4 3 3 2 1 2 3 2 3 2
1 3 2 3 3 4 4 5 4 5 6 6 6 5 5 7 7 7 7 6 4 4 3 3 3 4 4 3 3 2 2 2 2 2 2 1 1 1 0 0 1 0 1 1 1 2 1 2 2
1 2 3 3 3 4 5 4 4 5 6 4 4 4 7 8 8 7 6 5 4 3 3 3 3 3 3 2 2 2 2 2 2 2 1 1 0 0 1 0 1 1 1 1 2 2 2 3 3
2 1 2 3 3 4 4 5 5 6 6 3 2 4 7 7 6 5 5 5 4 3 2 3 3 3 3 2 2 2 2 2 2 1 1 1 0 0 1 1 1 1 2 2 2 3 3 3 3
0 1 2 3 3 3 4 5 5 5 3 2 3 5 6 5 5 5 5 5 4 3 2 2 2 2 3 2 2 2 2 2 1 1 1 1 0 0 1 1 1 1 2 2 2 3 3 2 2
2 1 1 2 2 2 4 5 5 5 3 3 4 4 4 4 4 5 5 5 4 4 3 2 2 2 3 3 2 2 2 1 1 1 1 1 0 0 1 1 1 1 2 2 2 2 2 2 2
1 1 1 2 3 2 4 6 2 2 3 4 3 4 4 4 4 3 3 3 4 4 4 3 2 2 2 2 2 1 1 1 1 0 0 0 0 1 1 1 1 1 2 2 2 2 2 2 2
1 2 3 2 2 2 3 6 3 2 2 2 3 4 4 3 3 3 3 3 3 3 4 4 3 2 2 2 2 2 1 1 1 0 1 1 0 1 1 1 1 1 1 1 2 2 2 2 2
1 2 3 3 3 4 4 6 5 2 2 2 2 3 4 3 3 2 3 3 3 3 3 3 3 2 2 2 2 1 1 1 1 1 1 1 1 1 1 1 1 1 1 1 2 1 1 1 2
2 2 4 4 4 5 5 8 6 3 3 3 2 3 3 3 3 3 3 3 3 3 3 3 3 2 2 2 2 2 1 1 1 1 1 1 1 1 2 1 1 1 1 1 2 2 1 1 1
2 3 4 3 3 4 6 8 5 2 2 3 3 2 3 3 3 3 3 3 3 3 3 3 3 2 2 1 1 1 1 1 1 0 0 0 0 1 1 1 1 1 1 1 1 2 1 1 1
3 4 4 6 6 3 6 5 3 1 1 1 2 2 2 3 3 3 3 3 3 3 2 2 2 2 2 2 1 1 1 1 2 2 1 1 1 0 1 2 1 1 1 1 1 2 2 1 1
3 2 4 5 5 2 3 4 3 2 2 2 1 2 2 2 3 3 3 3 3 2 2 2 2 2 2 2 2 2 2 2 2 1 1 1 1 1 1 1 1 1 1 2 2 2 2 2 2
2 3 4 4 3 4 2 4 3 2 3 3 2 1 1 2 2 3 3 2 2 2 2 2 2 2 2 2 2 2 2 1 1 2 2 2 1 1 1 2 1 1 1 2 2 2 2 2 2
2 2 2 2 2 4 2 4 4 3 4 4 2 1 1 2 3 3 3 2 2 2 2 2 2 2 2 2 2 3 3 2 3 3 3 2 2 1 2 2 2 2 1 2 2 2 2 2 2
1 2 2 2 2 2 0 5 5 1 2 3 3 2 1 2 2 3 3 2 2 2 2 2 2 2 2 2 2 3 3 3 4 3 3 3 2 2 2 2 2 2 2 2 2 2 2 3 3
1 2 2 3 3 2 2 6 3 1 2 2 2 2 1 2 2 3 3 3 2 2 3 3 3 3 3 3 3 3 3 3 3 3 3 3 2 2 2 3 3 3 2 2 2 2 3 3 3
1 1 1 2 2 5 4 4 4 2 1 1 1 1 1 1 2 2 2 3 2 3 3 3 3 3 3 3 3 3 3 3 3 3 3 3 2 2 3 3 3 3 3 3 2 2 3 3 3
2 1 2 2 3 4 4 4 3 2 2 2 1 0 1 0 1 1 2 2 2 2 2 3 3 3 3 3 3 3 3 3 3 3 3 3 3 2 3 3 3 3 3 3 3 3 3 3 3
3 3 3 2 3 4 4 2 1 2 2 2 1 1 1 2 2 1 2 2 2 2 2 2 3 3 3 3 3 4 3 3 3 3 3 3 3 3 3 3 3 3 3 3 3 3 3 3 3
4 4 4 3 3 4 5 4 3 2 2 3 3 2 2 2 2 2 2 2 2 2 3 3 3 3 3 3 3 4 3 3 3 4 4 3 3 3 3 3 3 3 3 3 4 4 3 4 4
Wind_Direction
326 318 269 223 214 225 230 217 214 194 198 213 219 228 228 216 222 79 86 138 140 143 142 141 134 130 127 128 124 121 119 117 118 120 120 119 116 112 107 104 101 96 91 89 88 83 80 82 80
319 295 223 216 228 224 221 214 211 209 177 152 203 217 214 205 54 82 123 138 145 142 142 140 133 132 128 126 128 127 125 121 120 119 119 120 118 114 108 104 99 93 86 85 85 83 79 78 79
284 277 228 210 228 232 219 186 198 182 191 213 202 230 247 158 114 112 113 144 145 142 142 132 133 133 131 126 126 130 127 123 119 116 113 112 116 116 111 105 99 94 87 83 85 84 81 79 76
246 200 218 228 226 233 240 197 186 179 192 215 224 196 160 53 67 98 130 146 142 141 142 134 136 137 132 128 125 126 128 125 122 119 119 118 113 116 110 101 96 94 90 86 84 84 85 83 78
239 221 211 223 232 236 243 236 210 214 213 215 236 228 193 106 88 127 142 148 144 140 140 140 135 135 133 131 128 123 126 126 122 119 118 121 115 102 96 90 82 82 91 92 86 82 81 71 67
197 218 223 224 227 232 228 227 225 236 236 239 239 230 194 131 138 139 146 149 142 139 140 141 132 129 128 123 119 117 112 115 114 113 112 109 107 100 90 84 79 73 63 67 79 74 70 57 47
227 218 235 233 233 233 226 222 231 237 238 239 246 227 183 169 147 146 152 145 138 137 140 140 144 139 129 122 116 109 103 99 100 99 99 97 94 92 86 79 70 63 56 39 41 56 42 21 357
278 226 221 224 231 240 223 229 248 249 253 267 244 230 203 171 154 151 148 141 131 129 131 138 139 144 142 131 111 105 99 94 92 92 90 93 104 101 91 84 62 52 46 39 25 32 21 8 344
247 232 229 228 237 246 224 238 248 270 239 234 244 286 324 143 162 159 154 146 139 129 122 128 135 133 138 132 122 119 109 101 110 107 102 129 133 124 116 71 51 44 40 32 20 6 12 323 224
229 232 245 273 274 268 257 263 255 230 230 234 229 243 171 165 177 176 173 167 161 149 135 135 134 133 134 133 135 132 129 126 121 113 122 128 112 87 79 98 72 51 30 27 17 339 274 265 256
222 240 265 276 291 284 261 264 256 242 243 243 238 214 184 179 185 188 179 170 162 156 145 133 127 129 133 136 135 127 126 124 116 103 106 119 122 122 125 125 134 175 289 319 335 279 289 293 301
204 265 273 282 302 283 268 263 254 254 266 295 277 213 183 186 190 192 180 166 156 151 143 131 123 117 121 128 129 124 121 112 96 86 74 76 71 20 28 3 358 317 314 325 315 303 304 296 293
226 262 316 311 301 289 275 260 262 267 274 280 246 196 194 194 194 191 179 166 159 154 144 132 119 114 115 117 127 121 108 99 94 77 71 58 57 35 28 4 357 341 334 320 316 304 305 297 300
176 275 312 318 296 283 275 271 256 265 265 232 202 198 197 189 182 178 177 175 168 162 151 128 122 119 119 118 115 106 103 102 90 82 71 63 42 2 342 345 350 346 331 326 308 308 298 293 296
245 256 320 332 308 294 281 265 247 270 251 227 212 193 180 176 172 185 184 176 169 163 149 144 137 132 127 120 109 100 102 109 93 81 62 59 47 325 301 314 324 330 323 319 307 307 296 293 291
212 234 286 6 334 300 259 265 289 301 239 225 194 174 169 166 167 176 176 169 164 158 153 150 146 136 128 124 118 117 112 103 89 55 45 43 24 326 288 293 308 321 318 318 311 309 300 296 299
154 279 292 331 353 313 258 276 307 325 244 211 179 166 158 151 146 154 153 156 158 159 155 148 142 140 135 137 137 130 135 119 100 67 10 349 335 297 271 286 308 316 321 324 316 316 306 303 311
282 293 293 304 347 318 278 282 297 294 255 240 197 166 160 160 154 147 135 134 142 146 147 144 141 140 137 145 145 133 130 126 120 88 48 6 340 294 268 252 302 317 306 321 322 322 315 306 317
304 284 294 311 331 305 284 288 292 288 255 241 221 186 173 164 149 137 138 135 135 133 138 141 140 140 150 163 171 166 177 179 173 129 62 33 3 329 293 271 257 282 294 318 326 312 293 332 331
272 284 297 316 342 308 291 287 283 270 250 254 238 210 184 169 158 154 149 137 143 142 143 141 151 151 160 171 154 174 182 213 209 208 199 304 3 349 325 295 270 270 273 281 317 312 282 301 318
304 293 307 311 312 274 293 270 223 214 236 243 237 228 203 194 190 171 163 161 158 151 153 156 158 156 161 157 139 141 172 199 205 210 215 232 247 237 299 309 291 288 279 274 289 301 279 263 259
288 322 303 302 299 299 318 290 238 228 236 219 203 202 206 195 190 181 178 179 175 166 155 161 165 169 166 173 186 194 222 237 246 250 232 228 235 233 246 282 274 272 278 284 290 302 276 258 251
308 321 293 287 280 278 247 262 261 177 226 226 220 217 213 195 189 187 185 189 178 161 157 167 173 178 178 191 202 215 222 241 248 248 237 239 238 251 250 257 259 258 270 286 290 290 268 254 256
279 274 256 230 244 256 242 250 263 197 226 227 219 237 224 189 181 181 170 165 160 153 159 175 185 189 193 205 211 222 230 230 231 242 249 249 242 244 254 250 248 252 260 274 277 277 272 259 252
284 285 284 244 233 256 106 253 260 264 248 243 234 240 245 198 183 176 172 172 170 173 182 194 202 209 213 216 221 230 238 240 243 253 257 260 256 251 253 252 250 253 250 246 258 264 272 264 250
280 286 296 295 294 302 229 251 274 10 290 267 246 233 211 184 180 186 190 194 194 195 201 204 213 224 227 229 236 240 239 244 248 249 256 257 262 265 259 253 250 252 253 243 236 245 256 254 246
224 208 315 281 287 272 251 266 274 177 228 214 182 178 182 184 189 196 199 199 200 206 214 217 220 229 232 235 240 243 242 244 250 257 259 258 254 258 254 249 247 247 249 253 245 243 254 243 240
300 196 198 230 276 276 273 260 263 218 216 207 202 233 308 296 233 216 210 213 215 217 219 217 225 232 238 240 241 247 249 250 251 251 249 250 252 252 251 249 247 248 246 247 247 245 250 243 237
184 200 225 236 268 278 287 279 30 251 230 228 246 276 300 296 270 247 233 229 230 224 218 216 226 233 240 245 248 249 252 254 252 249 251 252 248 245 246 246 249 254 255 252 245 245 248 248 245
250 241 219 244 240 243 274 282 76 266 261 252 256 270 290 284 268 253 238 230 232 232 228 227 233 239 246 250 252 253 255 253 253 255 255 254 253 249 249 248 248 251 256 256 253 250 249 252 253